Location: Peebles
(55.6412°N, 3.1714°W)
Time: 00:28:47
(UTC+00:00)

Cosmos 2219 - Visible Passes

Search period start: 28 January 2022 00:00
Search period end: 07 February 2022 00:00
Orbit: 833 x 860 km, 71.1° (Epoch: 27 January)

Date Brightness Start Highest point End Pass type
(mag) Time Alt. Az. Time Alt. Az. Time Alt. Az.
28 Jan 4.5 17:22:13 10° NNW 17:26:38 22° NNE 17:31:03 10° ENE visible
28 Jan 3.4 19:06:27 10° NNW 19:12:05 53° NE 19:13:20 45° E visible
28 Jan 4.4 20:50:50 10° NW 20:55:17 39° W 20:55:17 39° W visible
29 Jan 3.4 18:52:55 10° NNW 18:58:33 52° NE 19:00:42 35° ESE visible
29 Jan 4.2 20:37:18 10° NW 20:42:40 42° WSW 20:42:40 42° WSW visible
30 Jan 3.4 18:39:23 10° NNW 18:45:00 51° NE 18:48:11 25° ESE visible
30 Jan 4.2 20:23:44 10° NW 20:29:08 43° WSW 20:30:09 40° SW visible
31 Jan 3.4 18:25:51 10° NNW 18:31:27 51° NE 18:35:49 17° ESE visible
31 Jan 4.2 20:10:12 10° NW 20:15:37 44° WSW 20:17:48 31° SSW visible
01 Feb 3.5 18:12:18 10° NNW 18:17:55 50° NE 18:23:29 10° ESE visible
01 Feb 4.2 19:56:38 10° NW 20:02:05 45° WSW 20:05:41 20° S visible
02 Feb 3.5 17:58:46 10° NNW 18:04:22 49° NE 18:09:56 10° ESE visible
02 Feb 4.2 19:43:06 10° NW 19:48:34 46° WSW 19:53:53 11° S visible
03 Feb 3.5 17:45:14 10° NNW 17:50:49 48° NE 17:56:23 10° ESE visible
03 Feb 4.2 19:29:33 10° NW 19:35:02 47° WSW 19:40:30 10° S visible
04 Feb 3.5 17:31:41 10° NNW 17:37:16 48° NE 17:42:49 10° ESE visible
04 Feb 4.2 19:15:59 10° NW 19:21:30 48° WSW 19:26:59 10° S visible
05 Feb 4.2 19:02:27 10° NW 19:07:58 48° WSW 19:13:27 10° S visible
06 Feb 4.2 18:48:54 10° NW 18:54:25 49° WSW 18:59:57 10° S visible
06 Feb 6.3 20:36:29 10° W 20:37:15 10° W 20:38:00 10° W visible
